Le nostre stazioni meteo in Italia

Pubblicità
Il mio iltempo24.it
Fyvie castle, Gran Bretagna (99010): Temperatura & dewpoint: 13.08.2018 09:00:00 - 19.08.2018 09:00:00 (BST)Fyvie castle, Gran Bretagna (99010): precipitazioni: 13.08.2018 09:00:00 - 19.08.2018 09:00:00 (BST)
Data & Tempo tt [°C] td [°C] rr [mm]
19.08.2018 09:00:00 11,7 10,7 -
19.08.2018 08:00:00 10,8 9,8 0,0
19.08.2018 07:00:00 10,3 9,3 0,0
19.08.2018 06:00:00 9,9 8,5 0,0
19.08.2018 05:00:00 9,6 8,1 0,0
19.08.2018 04:00:00 9,0 7,6 0,0
19.08.2018 03:00:00 8,4 7,2 0,0
19.08.2018 02:00:00 7,5 6,9 0,0
19.08.2018 01:00:00 6,8 5,8 0,0
19.08.2018 00:00:00 8,0 6,4 0,0
18.08.2018 23:00:00 9,6 6,7 0,0
18.08.2018 22:00:00 11,4 7,3 0,0
18.08.2018 21:00:00 14,2 7,1 0,0
18.08.2018 20:00:00 17,0 7,7 0,0
18.08.2018 19:00:00 17,6 7,6 0,0
18.08.2018 18:00:00 17,9 6,5 0,0
18.08.2018 17:00:00 19,0 7,7 0,0
18.08.2018 16:00:00 20,1 8,4 0,0
18.08.2018 15:00:00 19,1 7,6 0,0
18.08.2018 14:00:00 18,8 8,5 0,0
18.08.2018 13:00:00 17,9 8,6 0,0
18.08.2018 12:00:00 17,9 7,9 0,0
18.08.2018 11:00:00 18,6 8,3 0,0
18.08.2018 10:00:00 16,7 6,9 0,0
18.08.2018 09:00:00 16,2 8,9 0,0
18.08.2018 08:00:00 15,6 8,5 0,0
18.08.2018 07:00:00 15,2 8,6 0,0
18.08.2018 06:00:00 14,2 8,6 0,0
18.08.2018 05:00:00 14,3 7,7 0,0
18.08.2018 04:00:00 14,4 7,8 0,0
18.08.2018 03:00:00 12,4 9,1 0,0
18.08.2018 02:00:00 13,8 8,7 0,0
18.08.2018 01:00:00 13,1 9,4 0,0
18.08.2018 00:00:00 13,4 9,5 0,0
17.08.2018 23:00:00 13,4 10,9 0,0
17.08.2018 22:00:00 14,8 12,1 0,0
17.08.2018 21:00:00 15,1 11,9 0,0
17.08.2018 20:00:00 16,1 11,9 0,0
17.08.2018 19:00:00 16,5 11,8 0,0
17.08.2018 18:00:00 16,3 11,4 0,0
17.08.2018 17:00:00 16,1 10,5 0,0
17.08.2018 16:00:00 16,2 10,7 0,0
17.08.2018 15:00:00 15,6 9,9 0,0
17.08.2018 14:00:00 16,0 9,9 0,0
17.08.2018 13:00:00 15,9 8,8 0,0
17.08.2018 12:00:00 16,8 7,9 0,0
17.08.2018 11:00:00 15,5 8,0 0,0
17.08.2018 10:00:00 15,0 8,5 0,0
17.08.2018 09:00:00 14,4 8,5 0,0
17.08.2018 08:00:00 12,9 8,7 0,0
17.08.2018 07:00:00 10,0 7,8 0,0
17.08.2018 06:00:00 9,0 8,2 0,0
17.08.2018 05:00:00 8,7 7,5 0,0
17.08.2018 04:00:00 9,3 8,1 0,0
17.08.2018 03:00:00 9,7 7,7 0,0
17.08.2018 02:00:00 11,1 7,8 0,0
17.08.2018 01:00:00 12,1 7,5 0,0
17.08.2018 00:00:00 12,9 7,5 0,0
16.08.2018 23:00:00 13,1 7,5 0,0
16.08.2018 22:00:00 11,9 8,5 0,0
16.08.2018 21:00:00 13,3 7,6 0,0
16.08.2018 20:00:00 15,2 8,4 0,0
16.08.2018 19:00:00 16,8 7,9 0,0
16.08.2018 18:00:00 18,3 9,6 0,0
16.08.2018 17:00:00 16,9 7,6 0,0
16.08.2018 16:00:00 19,1 9,6 0,0
16.08.2018 15:00:00 18,0 7,6 0,0
16.08.2018 14:00:00 18,9 7,7 0,0
16.08.2018 13:00:00 18,9 8,5 0,0
16.08.2018 12:00:00 18,7 8,6 0,0
16.08.2018 11:00:00 17,4 8,2 0,0
16.08.2018 10:00:00 15,9 8,4 0,0
16.08.2018 09:00:00 14,1 7,6 0,0
16.08.2018 08:00:00 11,2 8,2 0,0
16.08.2018 07:00:00 7,2 6,7 0,0
16.08.2018 06:00:00 7,5 6,6 0,0
16.08.2018 05:00:00 9,3 8,0 0,0
16.08.2018 04:00:00 12,0 9,7 0,0
16.08.2018 03:00:00 12,7 10,6 0,0
16.08.2018 02:00:00 12,9 9,8 0,0
16.08.2018 01:00:00 13,0 10,1 0,0
16.08.2018 00:00:00 13,2 9,5 0,0
15.08.2018 23:00:00 14,0 8,7 0,0
15.08.2018 22:00:00 15,6 8,2 0,0
15.08.2018 21:00:00 15,1 8,2 0,0
15.08.2018 20:00:00 17,1 7,9 0,0
15.08.2018 19:00:00 17,2 10,0 0,0
15.08.2018 18:00:00 17,9 10,3 0,0
15.08.2018 17:00:00 17,9 14,9 0,0
15.08.2018 16:00:00 17,6 14,9 0,0
15.08.2018 15:00:00 18,4 14,4 0,0
15.08.2018 14:00:00 18,5 13,5 0,0
15.08.2018 13:00:00 17,6 14,0 0,0
15.08.2018 12:00:00 18,2 14,3 0,0
15.08.2018 11:00:00 17,2 13,7 0,0
15.08.2018 10:00:00 16,5 14,7 0,0
15.08.2018 09:00:00 15,4 14,1 0,0
15.08.2018 08:00:00 13,4 12,5 0,0
15.08.2018 07:00:00 12,7 11,9 0,0
15.08.2018 06:00:00 11,8 11,1 0,0
15.08.2018 05:00:00 11,5 10,8 0,0
15.08.2018 04:00:00 11,3 10,5 0,0
15.08.2018 03:00:00 11,6 10,5 0,0
15.08.2018 02:00:00 12,4 10,6 0,0
15.08.2018 01:00:00 13,4 10,6 0,0
15.08.2018 00:00:00 14,8 10,4 0,0
14.08.2018 23:00:00 16,2 10,3 0,0
14.08.2018 22:00:00 17,5 10,6 0,0
14.08.2018 21:00:00 18,2 10,6 0,0
14.08.2018 20:00:00 19,3 12,2 0,0
14.08.2018 19:00:00 20,9 12,5 0,0
14.08.2018 18:00:00 20,4 14,6 0,2
14.08.2018 17:00:00 20,3 13,8 0,0
14.08.2018 16:00:00 21,0 13,5 0,0
14.08.2018 15:00:00 19,2 14,5 0,0
14.08.2018 14:00:00 18,9 13,0 0,0
14.08.2018 13:00:00 18,4 12,2 0,0
14.08.2018 12:00:00 18,8 11,7 0,0
14.08.2018 11:00:00 17,5 13,0 0,0
14.08.2018 10:00:00 16,2 13,1 0,0
14.08.2018 09:00:00 14,6 14,4 0,0
14.08.2018 08:00:00 13,1 13,0 0,0
14.08.2018 07:00:00 11,5 11,2 0,0
14.08.2018 06:00:00 11,3 10,9 0,0
14.08.2018 05:00:00 11,1 10,2 0,0
14.08.2018 04:00:00 12,8 12,1 0,0
14.08.2018 03:00:00 13,2 12,3 0,0
14.08.2018 02:00:00 13,5 12,1 0,2
14.08.2018 01:00:00 13,8 11,7 0,0
14.08.2018 00:00:00 13,9 11,5 0,0
13.08.2018 23:00:00 13,8 11,7 0,0
13.08.2018 22:00:00 14,1 11,4 0,0
13.08.2018 21:00:00 14,5 11,4 0,0
13.08.2018 20:00:00 15,2 11,3 0,0
13.08.2018 19:00:00 15,7 10,9 0,0
13.08.2018 18:00:00 16,5 10,4 0,0
13.08.2018 17:00:00 16,7 10,5 0,0
13.08.2018 16:00:00 16,5 10,3 0,0
13.08.2018 15:00:00 16,5 11,1 0,0
13.08.2018 14:00:00 15,8 11,2 0,0
13.08.2018 13:00:00 15,7 12,0 0,0
13.08.2018 12:00:00 14,9 12,1 0,0
13.08.2018 11:00:00 14,3 12,3 0,0
13.08.2018 10:00:00 13,9 12,9 0,0
13.08.2018 09:00:00 13,3 12,5 0,0

tt = Temperatura
td = dewpoint
rr = precipitazioni

Stazioni seguenti

WeatherPro
AMSI
MeteoEarth